Regional Weather Roundup
Issued by NWS Little Rock, AR

Home | Current Version | Previous Version | Graphics & Text | Print | Product List | Glossary On
Versions: 1 2 3 4 5 6 7 8 9 10 11 12 13 14 15 16 17 18 19 20 21 22 23 24 25 26 27 28 29 30 31 32 33 34 35 36 37 38 39 40 41 42 43 44 45 46 47 48 49 50
957
ASUS44 KLZK 231305
RWRLZK

WEATHER ROUNDUP FOR ARKANSAS
NATIONAL WEATHER SERVICE LITTLE ROCK AR
700 AM CST MON JAN 23 2017

NOTE: "FAIR" INDICATES FEW OR NO CLOUDS BELOW 12,000 FEET WITH NO
SIGNIFICANT WEATHER AND/OR OBSTRUCTIONS TO VISIBILITY.

ARZ001-003-010-029-231400-
NORTHWEST ARKANSAS

CITY           SKY/WX    TMP DP  RH WIND       PRES   REMARKS
FAYETTEVILLE   CLOUDY    36  34  92 NW7       29.90R
FORT SMITH     CLEAR     37  32  82 W12       29.92S
HARRISON       CLOUDY    37  35  92 NW10      29.86R
BENTONVILLE    CLOUDY   N/A N/A N/A NW6       29.90R
ROGERS         CLOUDY    36  34  92 NW8       29.91R
SILOAM SPGS    CLOUDY    36  32  87 N6        29.91R
HIGHFILL       CLOUDY    37  35  92 NW6       29.90R
SPRINGDALE     CLOUDY    37  34  87 NW7       29.91R
$$

ARZ004-005-016-231400-
NORTH CENTRAL ARKANSAS

CITY           SKY/WX    TMP DP  RH WIND       PRES   REMARKS
BATESVILLE     CLOUDY    43  34  70 NW12G20   29.83R
FLIPPIN        CLOUDY    41  32  70 NW8       29.84R
MTN HOME       CLOUDY    39  35  86 N6        29.84S
$$

ARZ040-041-231400-
WEST CENTRAL ARKANSAS

CITY           SKY/WX    TMP DP  RH WIND       PRES   REMARKS
MENA           CLEAR     39  36  87 W3        29.89S
MOUNT IDA      CLEAR     37  33  85 VRB3      29.85R
$$

ARZ009-017-025-026-028-231400-
NORTHEAST ARKANSAS

CITY           SKY/WX    TMP DP  RH WIND       PRES   REMARKS
CORNING        MIX PCPN  41  36  81 NW14G21   29.80R
JONESBORO      CLEAR     43  35  73 NW12G21   29.78R
NEWPORT        CLOUDY    43  36  76 N21       29.81R
WALNUT RIDGE   CLOUDY    43  34  70 NW15      29.81R
BLYTHEVILLE    CLEAR     41  37  86 NW16      29.76R
$$

ARZ022-023-033-042-044-231400-
CENTRAL ARKANSAS

CITY           SKY/WX    TMP DP  RH WIND       PRES   REMARKS
LITTLE ROCK    PTCLDY    40  35  83 NW10      29.85R
N LITTLE ROCK    N/A     40  36  84 N8G16     29.85R
JACKSONVILLE   MOCLDY    42  36  79 NW8       29.83R
SEARCY         CLOUDY    43  37  79 NW10G17   29.84R
HOT SPRINGS    CLEAR     38  33  82 VRB5      29.87R
RUSSELLVILLE   PTCLDY    36  33  89 CALM      29.87R
CLINTON        CLOUDY    43  36  75 CALM      29.84R
$$

ARZ036-231400-
EAST ARKANSAS

CITY           SKY/WX    TMP DP  RH WIND       PRES   REMARKS
WEST MEMPHIS   CLEAR     42  39  89 NW9       29.78R
$$

ARZ050-053-066-070-073-231400-
SOUTHWEST ARKANSAS

CITY           SKY/WX    TMP DP  RH WIND       PRES   REMARKS
CAMDEN         CLEAR     39  32  75 NW9       29.87R
TEXARKANA      CLEAR     38  35  89 NW9       29.88R
EL DORADO        N/A    N/A N/A N/A MISG      29.85R
DE QUEEN       CLEAR     37  34  89 CALM      29.87S
$$

ARZ056-057-069-231400-
SOUTHEAST ARKANSAS

CITY           SKY/WX    TMP DP  RH WIND       PRES   REMARKS
PINE BLUFF     CLEAR     43  36  76 NW14      29.83R
STUTTGART      CLEAR     43  30  61 NW15      29.82R
MONTICELLO     CLEAR     45  39  79 NW7       29.81R

$$






USA.gov is the U.S. government's official web portal to all federal, state and local government web resources and services.